Погода в Утене

Погода в Утене : погода сейчас, прогноз погоды и архив. Всё, что Вы хотите узнать о погоде в Утене!

Поиск расширенной информации на нашем сайте:

Другие новости

Новости СМИ2

Главная страница сайта

Новости сайта

03.07.2017

Напоминаем, что на нашем специализированном сайте Метеоцентр.Азия вы можете получить высокодетализированные автоматические прогнозы погоды по пунктам России, СНГ и мира в авиационном формате (включающие направление и скорость ветра, видимость, явления погоды, количество и форму облачности, нижнюю и верхнюю границу облачности).

Рекомендуем: ветошь Спб

Погода в Утене - сегодня

Время (UTC), дата Ветер
(°,м/с) 
Видим.   Явления Облачность Т
(°С)
Тd
(°С)
f(%) Тe
(°С)
Pmin
(гПа)
dP
(гПа)
Po
(мм)
O2
(г/м3)
Тmin Tmax R s Состояние
почвы
18 17.11.17 230 (ЮЗ) 2-4{07}  12000 м  {дождь, морось}  8/8 600 м верхняя 
[Sc|Ci sp]
+4.9 +3.2 89 +5  1017.1  0.5  753  298    +5.6     
21 17.11.17 230 (ЮЗ) 2-5{07}  16000 м    8/8 600 м верхняя 
[Sc|Ci sp]
+4.3 +2.6 89 +4  1017.6  0.4  753  298           
00 18.11.17 240 (ЮЗ) 3-6{06}  18000 м    9/9 600 м 
[Sc]
+3.7 +1.9 88 +2  1017  -0.6  753  299           
03 18.11.17 210 (ЮЗ) 2-5{07}  12000 м    10/10 300 м 
[St]
+2.9 +1.9 93 +2  1016.2  -0.8  752  300           
06 18.11.17 220 (ЮЗ) 3-7{08}  15000 м    10/10 300 м 
[St]
+3.4 +2.1 91 +2  1015.1  -1.1  751  299  +2.9        влажная 
09 18.11.17 200 (Ю) 4-8{09}  15000 м    9/9 300 м 
[St]
+3.3 +1.5 88 +1  1014  -1.1  751  299           
12 18.11.17 200 (Ю) 5-8{09}  20000 м    10/10 300 м 
[St]
+4.1 +1 80 +2  1012  -1.9  749  297           
15 18.11.17 190 (Ю) 3-6{08}  20000 м    10/10 600 м 
[Sc]
+3.7 +0.8 81 +2  1010.2  -1.8  748  297           
18 18.11.17 190 (Ю) 4-7{10}  20000 м    8/8 600 м 
[Sc]
+2.5 -0.5 81 1008.4  -1.8  746  298    +4.2       
21 18.11.17 170 (Ю) 3-5{10}  16000 м    8/8 600 м 
[Sc]
+1.7 -0.8 83 1006.5  -1.9  745  298           
00 19.11.17 160 (Ю) 3-6{08}  20000 м    9/9 600 м 
[Sc]
+1.8 -1 82 1004.5  -2  744  298           
03 19.11.17 170 (Ю) 3-5{07}  20000 м    10/10 600 м 
[Sc]
+1.5 -1.7 79 1002.6  -1.9  742  298           
06 19.11.17 170 (Ю) 3-5{08}  10 км  слаб. снег  10/10 300 м 
[Frnb|Ns]
+1.2 -1.1 85 1001.7  -0.9  741  298  +1.2    0.0    влажная 
09 19.11.17 170 (Ю) 3-5{08}  7000 м  слаб. снег  10/10 300 м 
[Frnb|Ns]
+1.7 +0.1 89 1001.3  -0.4  741  297           
12 19.11.17 200 (Ю) 2-5{07}  8000 м  в посл. час дождь{снег}  10/10 360 м 
[St]
+1.9 +0.8 92 +1  1000.9  -0.3  741  296         
15 19.11.17 150 (ЮВ) 2-4{05}  5000 м  слаб. дождь{морось}  10/10 240 м 
[Frnb|Ns]
+2.1 +0.8 91 +1  1000.8  -0.1  741  296           
18 19.11.17 190 (Ю) 1-4{05}  18000 м  в посл. час дождь{морось}  9/9 1260 м 
[Sc]
+2.5 +1.5 93 +3  1000.8  741  296    +2.5     
21 19.11.17 180 (Ю) 3-5{06}  19000 м    9/9 600 м 
[Sc]
+2.9 +1.3 89 +2  1001.6  0.8  741  295           
00 20.11.17 170 (Ю) 2-5{05}  13000 м  слаб. морось{дождь}  10/10 360 м 
[St]
+2.9 +1.3 89 +2  1001.7  0.1  742  295      0.0     
03 20.11.17 180 (Ю) 2-4{07}  19000 м  в посл. час морось{дождь}  10/10 400 м 
[St]
+2.9 +1.6 91 +2  1002.1  0.4  742  295           
06 20.11.17 170 (Ю) 1-3{04}  12000 м  в посл. час морось{дождь}  10/10 480 м 
[Sc]
+2.8 +1.5 91 +4  1003  0.9  743  296  +2.5    0.0    влажная 
09 20.11.17 170 (Ю) 2-4{04}  16000 м    10/10 700 м 
[Sc]
+3.1 +1 86 +3  1004.2  1.2  743  296           
12 20.11.17 160 (Ю) 2-4{06}  13000 м  {дождь}  10/10 400 м 
[St]
+3.4 +1.3 86 +3  1004.7  0.5  744  296      0.0     
15 20.11.17 180 (Ю) 2-4{05}  11000 м  слаб. дождь  10/10 270 м 
[Frnb|Ns]
+2.7 +0.9 88 +2  1005.8  745  297           
18 20.11.17 тихо () -1{05}  15000 м  в посл. час ливневой дождь  9/9 1320 м кучево-дожд. 
[Cb cap]
+1.5 +0.4 92 +2  1006.6  0.8  745  299    +3.5  0.0     
Время (UTC), дата Ветер
(°,м/с) 
Видим.   Явления Облачность Т
(°С)
Тd
(°С)
f(%) Тe
(°С)
Pmin
(гПа)
dP
(гПа)
Po
(мм)
O2
(г/м3)
Тmin Tmax R s Состояние
почвы

Для получения пояснительной информации подведите курсор к названию столбца.

ПОГОДА в Утене - архив

Всё, что Вы хотите узнать о погоде в Утене - удобно и подробно!

Выберите нужную дату (начиная с 1 января 2015* года) и нажмите кнопку "Найти".
Будут отображены архивные сводки погоды по пункту Утена, начиная с указанной даты.


Отображать данные в формате CSV (для использования в таблицах Excel)


Внимание! Наш архив погоды предназначен исключительно для личного некоммерческого использования в познавательных целях. Если Вам необходимы официальные справки о состоянии погоды (для производственных, юридических, коммерческих и т.п. целей), обращайтесь в органы Росгидромета.

*Примечание: данная дата относится к архиву по метеостанциям СССР (Россия, СНГ, Балтия).
Архив по метеостанциям Зарубежной Европы и Азии (кроме Китая) хранится 10 дней, по другим регионам земного шара (Китай, Африка, Америка, Австралия, Океания) - 1 день.

Утена - район местоположения метеостанции


Название, широта, долгота, высота метеостанции:
Утена 55.5°ш. 25.6°д. 106 м над ур. моря [Литва]

Дополнительная информация

В oтличие oт бoльшинства пoгoдных сайтoв мы публикуем пoдрoбную метеoинфoрмацию в детальнoм прoфессиoнальнoм фoрмате.

Характеристики температуры и влажнoсти вoздуха измеряются на высoте 2 м в тени вдали oт зданий и деревьев.
Скoрoсть ветра измеряется на высoте 10 м (на урoвне рoста челoвека скoрoсть ветра ниже в 1.5-2 раза). Если метеoстанция нахoдится в гoрoде или в лесу, тo скoрoсть ветра занижена на 2-4 м/с пo сравнению с oткрытым местoм. Скoрoсть ветра над акватoриями крупных рек и oзёр, а также на вершинах хoлмoв на 2-5 м/с выше, чем в oбычных услoвиях.
Атмoсфернoе давление в разных тoчках местнoсти мoжет значительнo oтличаться oт давления на метеoстанции, в зависимoсти oт услoвий рельефа (при пoдъёме на 10 м давление пoнижается примернo на 1 мм рт.ст.).